Location: Seagrave Observatory
(41.8500°N, 71.5833°W)
Time: 11:26:02
(UTC-04:00)

Daily predictions for brighter satellites

Satellite Brightness Start Highest point End
(mag) Time Altitude Azimuth Time Altitude Azimuth Time Altitude Azimuth
Cosmos 2056 Rocket 3.4 20:32:27 10° SSW 20:37:36 77° ESE 20:42:44 10° NNE
H-2A R/B 4.4 20:34:38 10° SW 20:38:25 26° SSE 20:50:54 10° ESE
Cosmos 1371 Rocket 4.3 20:34:46 10° SSW 20:40:04 76° WNW 20:45:22 10° NNE
Meteor 2-3 Rocket 4.3 20:35:20 10° SSW 20:40:54 65° W 20:46:29 10° N
ISS -2.2 20:38:34 10° SSW 20:41:17 25° SE 20:44:01 10° ENE
SPOT 5 4.1 20:37:34 10° SE 20:42:08 31° ENE 20:46:47 10° N
Cosmos 1862 4.4 20:40:42 10° SSE 20:44:06 26° E 20:47:32 10° NNE
USA 186 2.8 20:41:58 10° S 20:45:00 48° W 20:48:12 10° NNW
Cosmos 1674 Rocket 3.6 20:45:27 10° N 20:49:55 68° E 20:54:19 10° SSE
NOSS 2-2 (C) 4.1 20:46:05 10° SW 20:50:10 66° NW 20:54:59 10° NNE
Nadezhda 3 Rocket 4.4 20:45:24 10° N 20:51:31 47° ENE 20:57:36 10° SSE
COS B Rocket 4.2 20:48:33 10° NNE 20:52:11 30° E 20:55:29 10° SSE
Resurs 01 Rocket 4.5 20:51:35 10° SW 20:54:08 15° W 20:56:42 10° NW
Meteor 1-27 Rocket 3.9 20:49:43 10° N 20:55:09 52° ENE 21:00:31 10° SSE
SL-27 R/B 2.8 20:54:06 10° NNW 20:57:45 69° WSW 21:01:19 10° S
Cosmos 1606 3.1 20:54:50 10° N 20:58:40 48° E 21:02:28 10° SSE
Sich 1 Rocket 3.6 20:57:01 10° S 21:01:33 68° E 21:06:08 10° NNE
Cosmos 1892 4.1 21:01:25 10° SSW 21:05:04 42° WNW 21:08:46 10° N
Cosmos 1782 Rocket 4.3 21:01:27 10° SSE 21:05:26 33° E 21:09:28 10° NNE
Cosmos 1782 3.1 21:05:31 10° NNW 21:09:33 70° W 21:13:33 10° S
Envisat 3.0 21:06:26 10° SSE 21:11:30 76° ENE 21:16:35 10° N
CZ-4 DEB 4.5 21:12:20 10° SSW 21:15:12 32° W 21:18:06 10° NNW
COSMOS 2487 2.9 21:12:15 10° N 21:15:47 46° ENE 21:18:10 18° SE
GPS 2-05 Rocket1 4.1 21:12:42 10° SW 21:15:50 26° S 21:17:32 18° SE
Cosmos 2341 Rocket 4.1 21:10:27 10° S 21:16:36 57° E 21:22:43 10° NNE
Atlas Centaur 2 3.2 21:15:43 10° SSW 21:17:08 12° S 21:18:09 11° S
Cosmos 1975 Rocket 3.5 21:16:05 10° N 21:20:15 44° ENE 21:23:14 18° SE
Coronas F rocket 4.4 21:19:02 10° WSW 21:20:46 16° WNW 21:22:30 10° NW
Cosmos 1939 Rocket 3.1 21:18:11 10° S 21:22:02 68° W 21:25:58 10° NNW
Cosmos 1420 Rocket 4.4 21:17:21 10° S 21:22:16 42° ESE 21:27:11 10° NNE
ARGOS 3.8 21:23:42 17° SE 21:27:19 39° ENE 21:32:15 10° N
ATLAS 5 CENTAUR R/B 3.8 21:22:52 10° NW 21:28:14 33° WSW 21:33:53 10° S
ERS-1 Rocket 3.8 21:24:18 10° S 21:29:10 49° W 21:34:03 10° NNW
Cosmos 407 Rocket 4.2 21:24:32 10° NNW 21:29:41 54° WSW 21:34:51 10° S
Cosmos 2084 3.1 21:26:19 10° SW 21:30:11 89° WNW 21:34:02 10° NE
Cosmos 1908 Rocket 3.7 21:25:48 10° SSW 21:30:11 76° W 21:34:39 10° N
Timation 2 Rocket 4.1 21:24:21 10° NNW 21:30:14 55° ENE 21:34:21 20° SE
SL-8 Rocket 4.4 21:25:34 13° SSE 21:30:46 43° E 21:36:37 10° NNE
Cosmos 962 Rocket 4.4 21:25:14 10° S 21:31:21 74° E 21:37:35 10° N
Cosmos 1378 Rocket 3.5 21:27:59 10° N 21:32:19 84° W 21:36:03 14° S
H-2A R/B 3.4 21:32:36 16° ESE 21:35:26 25° ENE 21:39:40 10° NNE
Cosmos 1140 Rocket 3.5 21:30:37 10° NNW 21:35:45 65° ENE 21:39:05 22° SE
deb Chang Zheng 4 4.0 21:32:10 10° N 21:36:33 66° WNW 21:40:57 10° SSW
USA 234 4.1 21:34:22 10° ENE 21:39:30 24° SE 21:44:00 12° S
Cosmos 1452 Rocket 3.8 21:35:18 10° SSW 21:40:32 69° WNW 21:45:50 10° NNE
Cosmos 2154 Rocket 4.3 21:36:59 10° SSW 21:43:11 71° W 21:49:23 10° N
USA 245 3.2 21:44:17 32° SE 21:45:35 57° ENE 21:49:34 10° N
YAOGAN 6 2.4 21:44:09 28° SSE 21:45:53 83° E 21:49:25 10° N
Cosmos 1408 3.1 21:44:23 10° SSW 21:47:59 58° W 21:51:36 10° N
CZ-4B R/B 3.5 21:43:13 10° NNE 21:48:04 54° E 21:51:12 21° S
Cosmos 1242 Rocket 2.5 21:45:15 10° N 21:48:56 74° E 21:50:30 32° SSE
Cosmos 1833 Rocket 3.5 21:43:56 10° N 21:49:07 37° ENE 21:52:00 22° ESE
SPOT 1/Viking Rocket 3.6 21:47:23 23° SSE 21:50:38 70° ENE 21:55:50 10° N
Cosmos 2278 Rocket 2.3 21:45:13 10° SSW 21:50:53 78° WNW 21:56:36 10° NNE
Cosmos 1295 Rocket 4.5 21:44:47 10° S 21:51:05 76° E 21:57:21 10° N
CZ-4 SHROUD 3.4 21:50:45 31° S 21:52:04 66° WSW 21:55:09 10° NNW
Cosmos 1825 3.0 21:48:39 10° SSW 21:52:21 51° W 21:56:07 10° N
Cosmos 1844 Rocket 4.3 21:49:00 10° SW 21:54:13 37° WNW 21:59:27 10° N
Intercosmos 25 2.8 21:52:53 26° S 21:54:43 76° E 21:57:53 10° N
MetOp-A 4.3 21:52:41 17° S 21:56:46 70° WSW 22:02:08 10° NNW
PSLV R/B 3.8 21:55:39 29° SSW 21:56:49 48° W 21:59:42 10° NNW
Cosmos 2151 Rocket 4.0 21:56:02 32° SE 21:57:36 44° E 22:01:55 10° NNE
Landsat 7 4.4 21:57:13 29° ESE 21:59:04 42° ENE 22:03:33 10° N
H-2A R/B 3.5 21:55:32 10° SSW 21:59:25 32° W 22:03:15 10° NNW
Cosmos 1184 Rocket 4.0 21:59:21 10° SSW 22:02:27 41° WNW 22:05:40 10° N
Meteor 1-14 Rocket 4.2 21:58:45 19° S 22:02:48 69° E 22:08:21 10° NNE
Cosmos 2082 Rocket 2.3 22:04:51 10° NNW 22:10:33 67° ENE 22:13:01 34° SE
Cosmos 2366 rocket 4.0 22:07:19 25° SSE 22:11:07 66° E 22:17:24 10° NNE
IGS 5A 4.4 22:10:41 30° E 22:11:23 32° ENE 22:15:07 10° N
Cosmos 1850 Rocket 4.1 22:07:33 10° NNW 22:12:53 79° WSW 22:15:24 32° S
Terra 2.4 22:13:28 34° ESE 22:14:47 43° ENE 22:19:17 10° N
Cosmos 1812 3.6 22:12:37 10° N 22:16:10 34° ENE 22:16:16 34° E
ISS -2.0 22:14:29 10° W 22:17:36 40° NNW 22:20:43 10° NE
SL-08 RB Rocket 3.7 22:17:18 38° S 22:19:03 85° WSW 22:23:44 10° NNW
SPOT 5 4.4 22:15:47 13° SSW 22:20:02 36° W 22:24:58 10° NNW
Okean 1 Rocket 4.2 22:20:59 28° E 22:20:59 28° E 22:24:36 10° NNE
Spot 4 4.5 22:24:25 36° ESE 22:25:31 42° ENE 22:30:04 10° N
Cosmos 2297 3.8 22:20:15 10° SSW 22:25:57 80° WNW 22:31:44 10° NNE
USA 229 DEB 3.8 22:18:56 10° NNW 22:26:04 78° NE 22:29:26 35° SE
USA 229 3.8 22:19:03 10° NNW 22:26:11 77° NE 22:29:32 35° SE
Cosmos 1741 Rocket 4.5 22:28:06 10° NNW 22:33:11 53° WSW 22:35:15 33° SSW
DMSP B5D2-2 4.1 22:28:13 10° NNE 22:33:23 57° E 22:34:30 47° SE
Lacrosse 5 3.8 22:38:29 15° ENE 22:38:29 15° ENE 22:39:38 10° ENE
Gbstr 26 Del rocket 4.2 22:33:43 10° NW 22:38:29 40° NNE 22:40:13 28° ENE
Cosmos 2218 Rocket 4.3 22:33:57 19° SSW 22:38:43 68° W 22:45:07 10° N
Cosmos 1331 Rocket 3.9 22:42:01 54° SE 22:42:43 60° ESE 22:47:48 10° NNE
CZ-4C R/B 3.4 22:43:58 62° SW 22:44:19 66° WSW 22:48:24 10° NNW
ASTEX 1 3.5 22:40:07 10° NNE 22:44:58 53° E 22:45:20 51° ESE
Timation 1 Rocket 4.2 22:44:33 35° SSW 22:47:11 76° ESE 22:53:11 10° NNE
BREEZE-M DEB (TANK) 3.3 22:39:49 10° WNW 22:47:53 42° SW 22:48:20 41° SSW
Cosmos 1110 Rocket 3.8 22:48:01 51° S 22:49:20 80° ESE 22:54:34 10° NNE
BREEZE-M DEB (TANK) 4.1 22:49:51 10° NW 22:51:54 23° NNE 22:55:41 10° ENE
Cosmos 1727 Rocket 4.1 22:47:25 10° NNW 22:53:33 68° W 22:56:01 37° SSW
AVUM R/B 4.1 22:51:24 10° NNW 22:54:13 54° NW 22:54:13 54° NW
Cosmos 1400 Rocket 4.4 22:59:56 26° ENE 22:59:56 26° ENE 23:02:20 10° NNE
CARTOSAT-1 3.7 22:58:42 60° SW 22:59:01 63° W 23:03:19 10° NNW
Cosmos 2369 Rocket 3.5 23:00:27 24° E 23:00:27 24° E 23:03:49 10° NE
H-2A R/B 2.8 23:13:15 38° SW 23:14:34 45° W 23:19:40 10° NNW
NOSS 3-1 (C) 4.2 23:07:11 10° NNW 23:14:40 67° NE 23:17:46 40° ESE
Cosmos 1486 Rocket 3.9 23:09:20 10° NNW 23:14:42 82° ENE 23:15:08 74° SE
Okean 1 4.3 23:19:02 10° NNW 23:22:36 41° W 23:22:36 41° W
USA 234 3.2 23:16:26 10° NE 23:23:00 89° NW 23:29:32 10° SW
Cosmos 1633 4.4 23:24:49 26° NNE 23:24:49 26° NNE 23:26:41 10° NNE
Cosmos 1821 Rocket 3.9 23:27:03 64° SSE 23:28:00 79° E 23:34:15 10° N
Cosmos 1605 Rocket 4.4 23:28:19 46° ESE 23:28:46 47° E 23:34:51 10° NNE
Cosmos 1833 Rocket 3.7 23:28:00 10° NW 23:32:57 32° WSW 23:33:42 31° WSW
Cosmos 2285 Rocket 4.0 23:34:44 60° ESE 23:35:01 61° ESE 23:41:19 10° NNE
Cosmos 1943 Rocket 3.9 23:37:08 18° ENE 23:37:08 18° ENE 23:39:32 10° NE
Meteor 2-21 Rocket 4.3 23:39:07 70° S 23:39:54 87° E 23:46:09 10° N
Cosmos 1934 Rocket 3.7 23:40:23 74° SSE 23:40:56 82° E 23:47:01 10° N
Meteor 2-16 Rocket 4.3 23:41:16 71° SE 23:41:43 74° E 23:47:49 10° NNE
Cosmos 1302 Rocket 4.2 23:43:57 61° W 23:44:27 65° WNW 23:49:44 10° NNE
Cosmos 2123 Rocket 3.8 23:38:47 10° N 23:45:05 76° E 23:45:41 70° SE
Cosmos 1025 Rocket 3.7 23:45:07 10° NNW 23:48:39 54° NW 23:48:39 54° NW
Cosmos 1455 Rocket 4.3 23:53:59 36° NE 23:53:59 36° NE 23:56:47 10° NNE
Terra 3.7 23:52:21 20° W 23:52:42 20° W 23:56:13 10° NW
ALOS 2 3.6 23:53:52 42° NE 23:53:52 42° NE 23:57:13 10° N
Cosmos 2082 Rocket 4.1 23:50:27 10° WNW 23:54:00 17° W 23:54:52 17° WSW
ISS -0.2 23:52:33 10° NW 23:54:40 16° N 23:56:47 10° NNE
